AAL2764 KBOS-KPHL

Flight info

Callsign AAL2764
Flight time N/A
Altitude 34000
Route SSOXS7 SSOXS Q167 RIFLE Q439 BRIGS JIIMS4
Aircraft A320/M-SDE3FGHIRWY/LB1

Departure

Time N/A
Airport Boston Logan International Airport (KBOS)

Arrival

Time 2026-05-05 15:10
Airport Philadelphia International Airport (KPHL)
Time Latitude Longitude Altitude Speed Heading
2026-05-05 14:59 39.82079 -74.95326 7715 ft 309 kts 44°
2026-05-05 14:59 39.83345 -74.93062 7286 ft 310 kts 62°
2026-05-05 14:59 39.84030 -74.90851 6936 ft 306 kts 76°
2026-05-05 14:59 39.84537 -74.88299 6729 ft 286 kts 77°
2026-05-05 15:00 39.85035 -74.85841 6523 ft 269 kts 77°
2026-05-05 15:00 39.85357 -74.84265 6227 ft 265 kts 77°
2026-05-05 15:00 39.86024 -74.81236 5576 ft 263 kts 66°
2026-05-05 15:00 39.87048 -74.79313 5262 ft 258 kts 39°
2026-05-05 15:01 39.88553 -74.78135 4920 ft 249 kts 13°
2026-05-05 15:01 39.90228 -74.77834 4588 ft 239 kts 351°
2026-05-05 15:01 39.91796 -74.78270 4297 ft 226 kts 332°
2026-05-05 15:01 39.93124 -74.79287 3987 ft 218 kts 314°
2026-05-05 15:02 39.94110 -74.80728 3657 ft 212 kts 297°
2026-05-05 15:02 39.94702 -74.82448 3423 ft 204 kts 282°
2026-05-05 15:02 39.94882 -74.84222 3297 ft 193 kts 268°
2026-05-05 15:02 39.94697 -74.85913 3171 ft 184 kts 255°
2026-05-05 15:03 39.94388 -74.87470 3106 ft 171 kts 256°
2026-05-05 15:03 39.94107 -74.88914 3016 ft 158 kts 257°
2026-05-05 15:03 39.93852 -74.90218 2967 ft 143 kts 257°
2026-05-05 15:03 39.93611 -74.91450 2969 ft 140 kts 257°
2026-05-05 15:04 39.93366 -74.92704 2962 ft 141 kts 255°
2026-05-05 15:04 39.93126 -74.93931 2964 ft 140 kts 256°
2026-05-05 15:04 39.92886 -74.95152 2975 ft 138 kts 257°
2026-05-05 15:04 39.92646 -74.96373 2969 ft 140 kts 256°
2026-05-05 15:05 39.92164 -74.98828 2967 ft 140 kts 255°
2026-05-05 15:05 39.91925 -75.00039 2956 ft 139 kts 256°
2026-05-05 15:05 39.91684 -75.01265 2977 ft 141 kts 256°
2026-05-05 15:06 39.91442 -75.02490 2915 ft 140 kts 255°
2026-05-05 15:06 39.91200 -75.03717 2788 ft 139 kts 256°
2026-05-05 15:06 39.90959 -75.04941 2645 ft 140 kts 255°
2026-05-05 15:06 39.90718 -75.06159 2470 ft 139 kts 255°
2026-05-05 15:07 39.90480 -75.07364 2293 ft 137 kts 255°
2026-05-05 15:07 39.90242 -75.08571 2103 ft 137 kts 256°
2026-05-05 15:07 39.90004 -75.09772 1931 ft 136 kts 255°
2026-05-05 15:07 39.89771 -75.10952 1755 ft 137 kts 255°
2026-05-05 15:08 39.89533 -75.12155 1582 ft 136 kts 253°
2026-05-05 15:08 39.89296 -75.13345 1394 ft 135 kts 253°
2026-05-05 15:08 39.89058 -75.14527 1218 ft 135 kts 254°
2026-05-05 15:08 39.88824 -75.15715 1081 ft 137 kts 253°
2026-05-05 15:09 39.88596 -75.16913 833 ft 134 kts 253°
2026-05-05 15:09 39.88358 -75.18077 670 ft 133 kts 251°
2026-05-05 15:09 39.88112 -75.19256 505 ft 135 kts 251°
2026-05-05 15:09 39.87892 -75.20428 334 ft 132 kts 251°
2026-05-05 15:10 39.87726 -75.21212 223 ft 138 kts 254°
2026-05-05 15:10 39.87419 -75.22823 31 ft 135 kts 252°
2026-05-05 15:10 39.87207 -75.23875 21 ft 102 kts 256°
2026-05-05 15:10 39.87072 -75.24531 21 ft 38 kts 256°
2026-05-05 15:11 39.87039 -75.24710 18 ft 0 kts 254°